Погода в Брусничном

Россия / Иркутская область     57°16′17″N   103°16′05″E
темп.,
°C
ветер,
м/с
пор.,
м/с
влажн.,
%
обл.,
%
осадки,
мм/ч
давл.,
гПа
погр.,
м
18 апреля, вс
вс1823:00−8сз4108436 0.0 1019652
02:00−10зсз26915 0.0 1022194
05:00−11з12969 0.0 102554
08:00−8з24765 0.0 1026416
11:00−4юз225783 0.0 10241188
14:00−1ю2250100 0.0 10221683
17:00−1ююв3550100 0.0 10211576
20:00−4вюв1181100 0.0 102128
19 апреля, пн
пн1923:00−7юв1194100 0.0 102113
02:00−9юв11966 0.0 102011
05:00−10вюв119736 0.0 101811
08:00−4юв277799 0.0 1015232
11:00+1юв61266100 0.0 10091117
14:00+3ююв71466100 0.0 10031496
17:00+2ю61487100 1.2 9981194
20:00+2зюз816769 5.4 9971464
20 апреля, вт
вт2023:00−6зюз81881100 0.1 10061326
02:00−8з81775100 0.1 10101215
05:00−9зюз61479100 0.0 10131149
08:00−9зюз51076100 0.0 10141237
11:00−5юз61059100 0.1 10141735
14:00−4зюз71260100 0.1 10142398
17:00−3зюз61260100 0.1 10142211
20:00−5зюз41284100 0.3 10141452
21 апреля, ср
ср2123:00−6зюз51082100 0.2 1015940
02:00−6зюз41086100 0.4 10161134
05:00−8зюз4108479 0.1 1018717
08:00−6зюз4980100 0.1 1019801
11:00−3з5769100 0.1 10201237
14:00−1з5765100 0.3 10211389
17:00−1зсз4664100 0.4 10221342
20:00−3зсз268198 0.7 1025190
22 апреля, чт
чт2223:00−8з11969 0.0 102729
02:00−9зсз119853 0.0 102924
05:00−9сз119994 0.0 103121
08:00−5ссв1284100 0.1 1033441
11:00−1всв126995 0.1 1034854
14:00+1всв2254100 0.1 10341553
17:00+2св225093 0.1 10341481
20:00−3ссв11865 0.2 103716